Terminal Aerodrome Forecast
Issued by NWS Bismarck, ND

Home | Current Version | Previous Version | Graphics & Text | Print | Product List | Glossary On
Versions: 1 2 3 4 5 6 7 8 9 10 11 12 13 14 15 16 17 18 19 20 21 22 23 24 25 26 27 28
000
FTUS43 KBIS 231039 AAB
TAFISN
TAF AMD
KISN 231039Z 2311/2406 09012G20KT P6SM -SHRA OVC025
     FM231600 09014G20KT 5SM SHRA OVC008
     FM240100 08009KT 5SM SHRA BR OVC003=

USA.gov is the U.S. government's official web portal to all federal, state and local government web resources and services.